Simultaneous Nadir Overpasses (SNOs) Predictions

Prediction of SNOs between AURA and NPP Satellite Orbit:

Table of predicted SNOs for the next 14.0 days since TLE Epoch: 10/26/2024
Index Date (AURA) Time (AURA) Lat,Lon (AURA) SZA (AURA ) Date (NPP) Time (NPP) Lat,Lon (NPP) SZA (NPP ) Distance(km) Time Diff (sec)
1 10/26/2024 16:34:21 -80.87, 24.65 78.55 10/26/2024 16:34:04 -80.87, 24.60 78.53 0.89 17
2 10/26/2024 17:23:39 80.92,-166.97 101.36 10/26/2024 17:24:45 80.92,-167.02 101.33 1.03 66
3 10/29/2024 04:37:53 80.88, 23.89 102.25 10/29/2024 04:37:14 80.88, 24.04 102.25 2.60 39
4 10/29/2024 05:27:15 -80.90,-168.20 77.78 10/29/2024 05:27:58 -80.90,-168.29 77.79 1.65 43
5 10/31/2024 16:41:26 -80.87, 22.86 76.94 10/31/2024 16:40:26 -80.87, 23.03 76.92 3.07 60
6 10/31/2024 17:30:46 80.89,-169.19 103.04 10/31/2024 17:31:10 80.89,-169.33 103.05 2.55 24
7 11/03/2024 05:34:16 -80.89,-170.05 76.19 11/03/2024 05:34:21 -80.89,-170.08 76.19 0.56 5
8 11/05/2024 17:37:41 80.89,-170.78 104.55 11/05/2024 17:37:31 80.90,-170.65 104.54 2.29 10
9 11/05/2024 18:27:02 -80.94, -2.49 75.53 11/05/2024 18:28:14 -80.93, -2.59 75.56 1.93 72
10 11/08/2024 05:41:06 -80.89,-171.65 74.72 11/08/2024 05:40:42 -80.89,-171.60 74.71 0.87 24



Historial Predications of SNOs between AURA and NPP
